Regional Weather Roundup
Issued by NWS Jackson, KY

Home | Current Version | Previous Version | Graphics & Text | Print | Product List | Glossary On
Versions: 1 2 3 4 5 6 7 8 9 10 11 12 13 14 15 16 17 18 19 20 21 22 23 24 25 26 27 28 29 30 31 32 33 34 35 36 37 38 39 40 41 42 43 44 45 46 47 48 49 50
514
ASUS43 KJKL 141510
RWRJKL

EAST KENTUCKY HOURLY WEATHER ROUNDUP
NATIONAL WEATHER SERVICE JACKSON KY
1000 AM EST THU DEC 14 2017

NOTE: "FAIR" INDICATES FEW OR NO CLOUDS BELOW 12,000 FEET WITH
NO SIGNIFICANT WEATHER AND/OR OBSTRUCTIONS TO VISIBILITY.

* THESE REPORTS ARE NOT UNDER NWS QUALITY CONTROL AND MAY NOT
  REPORT WEATHER SUCH AS PRECIPITATION AND FOG.

KYZ079-080-083-085-087-088-110-112-115-119-120-141600
...EASTERN KENTUCKY...

CITY           SKY/WX    TMP DP  RH WIND       PRES   REMARKS
JACKSON        CLOUDY    33  21  61 N6        29.92R WCI  28
LONDON         CLOUDY    36  25  64 N5        29.93R WCI  32
SOMERSET*      CLOUDY    34  27  75 N7        29.97R WCI  28
MONTICELLO*    CLOUDY    37  27  67 N15       29.97R WCI  28
WILLIAMSBURG*  CLOUDY    36  27  69 NW5       29.94R WCI  32
MIDDLESBORO*   CLOUDY    38  27  63 N7        29.93R WCI  33
HARLAN APT*    CLOUDY    36  27  69 SW6       29.91R WCI  31
PIKE CO APT*   CLOUDY    34  23  65 NW10      29.91R WCI  26
BIG SANDY APT* CLOUDY    34  21  59 N3        29.93R
MOREHEAD APT*  CLOUDY    32  19  59 NW7       29.97R WCI  26
$$

KYZ035-036-041-042-044-050-067-078-099-141600
...CENTRAL KENTUCKY...

CITY           SKY/WX    TMP DP  RH WIND       PRES   REMARKS
MT STERLING*   CLOUDY    32  21  64 N3        29.98R
FLEMING/MASON* CLOUDY    29  19  66 N9        29.98R WCI  20
DANVILLE*      CLOUDY    32  21  64 N8        29.98R WCI  25
LEXINGTON      CLOUDY    32  20  61 N9        29.97R WCI  24
FRANKFORT      CLOUDY    32  17  54 N7        29.97R WCI  26
LOUISVILLE     CLOUDY    34  21  59 N10       30.01R WCI  26
LEBANON*       CLOUDY    32  19  59 N5        29.99R WCI  27
GLASGOW*       CLOUDY    34  23  63 N9        29.98R WCI  27
BOWLING GREEN  CLOUDY    36  25  64 N9        30.00R WCI  29
$$

KYZ091>093-OHZ055-061-077-WVZ005-015-034-035-042-141600
...SOUTHERN OHIO/WEST VIRGINIA...

CITY           SKY/WX    TMP DP  RH WIND       PRES   REMARKS
COVINGTON      CLOUDY    25  17  72 N10       29.98R WCI  15
COLUMBUS       FLURRIES  24  17  74 N5        29.99R WCI  18
DAYTON         CLOUDY    20  16  84 N8        30.00R WCI  10
WILMINGTON     CLOUDY    22  17  81 NE10      29.97R WCI  11
HUNTINGTON     CLOUDY    33  19  56 NW7       29.95R WCI  27
CHARLESTON     CLOUDY    34  20  56 VRB3      29.93R
PINEVILLE*       N/A     36  24  62 MISG      29.91R
BECKLEY        CLOUDY    29  19  66 N14G22    29.82R WCI  18
BLUEFIELD      CLOUDY    31  21  66 NW10G24   29.80R WCI  22
LOGAN CO APT*  CLOUDY    32  21  64 N9        29.90R WCI  24
$$

VAZ002-007-008-TNZ017-027-036-066-071-141600
...SOUTHWEST VIRGINIA/EAST TENNESSEE...

CITY           SKY/WX    TMP DP  RH WIND       PRES   REMARKS
WISE*          CLOUDY    34  27  75 W8        29.85R WCI  27
JONESVILLE*    PTSUNNY   39  27  60 CALM      29.93R
ABINGDON*      CLOUDY    39  26  58 NW9       29.85R WCI  33
BRISTOL        CLOUDY    43  29  57 SW9       29.88R
MORRISTOWN*    MOSUNNY   41  27  56 VRB6      29.90R
SEVIERVILLE*   SUNNY     45  27  49 W8        29.91R
KNOXVILLE      MOSUNNY   42  30  62 W6        29.91R
LAFOLLETTE*    CLOUDY    41  28  60 VRB3      29.95R
OAK RIDGE      SUNNY     40  28  62 S3        29.93R
CROSSVILLE     CLOUDY    36  27  69 NW7       29.91R WCI  30
NASHVILLE      CLOUDY    39  28  64 N10       29.99R WCI  32
$$

...KEY TO REMARKS...
VSB - VISIBILITY IN MILES
WCI - WIND CHILL INDEX
HX  - HEAT INDEX

$$




USA.gov is the U.S. government's official web portal to all federal, state and local government web resources and services.